Regional Weather Roundup
Issued by NWS

Home | Current Version | Previous Version | Graphics & Text | Print | Product List | Glossary On
Versions: 1 2 3 4 5 6 7 8 9 10 11 12 13 14 15 16 17 18 19 20 21 22 23 24 25 26 27 28 29 30 31 32 33 34 35 36 37 38 39 40 41 42 43 44 45 46 47 48 49 50
000
ASUS43 KBIS 231610
RWRND

NORTH DAKOTA REGIONAL WEATHER ROUNDUP
NATIONAL WEATHER SERVICE BISMARCK ND
1100 AM CDT SAT MAY 23 2015

NOTE: "FAIR" INDICATES FEW OR NO CLOUDS BELOW 12,000 FEET WITH NO
SIGNIFICANT WEATHER AND/OR OBSTRUCTIONS TO VISIBILITY.


NDZ001>003-009>011-017-231700-
NORTHWEST NORTH DAKOTA

CITY           SKY/WX    TMP DP  RH WIND       PRES   REMARKS
WILLISTON      SUNNY     66  41  40 VRB6      30.12S
MINOT          MOSUNNY   68  38  33 CALM      30.13S
MINOT AFB      SUNNY     74  40  29 SW5       30.12S
$$

NDZ018>021-031>035-040>046-231700-
SOUTHWEST NORTH DAKOTA

CITY           SKY/WX    TMP DP  RH WIND       PRES   REMARKS
BISMARCK       SUNNY     60  45  57 SE10      30.16F
DICKINSON      MOSUNNY   58  43  57 E13G21    30.09F
GARRISON         N/A     63  43  48 S7        30.14F
HETTINGER ARPT CLOUDY    52  43  71 SE20G26   30.11S
$$

NDZ004>008-012>016-024-026-027-054-231700-
NORTHEAST NORTH DAKOTA

CITY           SKY/WX    TMP DP  RH WIND       PRES   REMARKS
GRAND FORKS    MOSUNNY   69  46  43 VRB3      30.13F
GRND FRKS AFB  SUNNY     71  46  41 VRB2      30.13F
DEVILS LAKE    SUNNY     66  46  48 SW9       30.13F
$$

NDZ022-023-025-028>030-036>039-047>053-231700-
SOUTHEAST NORTH DAKOTA

CITY           SKY/WX    TMP DP  RH WIND       PRES   REMARKS
FARGO          SUNNY     68  45  43 SW13      30.19S
JAMESTOWN      SUNNY     65  46  50 S10       30.17S
$$



USA.gov is the U.S. government's official web portal to all federal, state and local government web resources and services.